Temperature
7 5 5 5 6 6 6 6 6 5 6 4 3 3 3 3 2 1 1 1 2 2 3 4 4 5 5 6 6 6 6 6 7 7 7 7 8 8 8 8 8 8 8 8
5 5 5 6 6 6 6 5 5 5 5 4 3 2 2 1 1 1 1 1 1 2 2 3 4 4 5 5 5 5 5 5 6 6 6 6 7 7 7 7 7 7 8 8
5 5 5 5 5 5 5 5 5 4 4 3 3 2 2 1 1 1 1 1 1 1 1 2 2 3 3 4 4 4 5 5 5 5 5 6 6 6 6 7 7 7 7 7
4 4 5 5 4 4 5 5 4 4 3 3 3 2 1 1 1 0 0 0 0 0 0 1 1 2 2 3 3 4 4 4 4 4 4 5 5 5 5 6 6 6 6 6
4 4 4 4 4 4 4 4 4 3 3 2 2 2 1 0 0 -0 -1 -1 -1 -1 -0 0 0 1 2 2 2 3 3 3 4 4 4 4 4 4 4 5 5 5 6 6
4 4 4 4 4 4 4 3 3 2 2 2 2 1 1 -1 -0 -1 -1 -1 -1 -1 -1 -0 0 1 1 2 2 2 2 2 3 3 3 3 3 3 4 4 4 5 5 5
3 3 3 3 3 3 3 3 2 2 2 2 2 1 -0 -1 -1 -2 -2 -2 -2 -1 -1 -1 -1 -0 0 1 1 1 1 2 2 2 2 2 2 3 3 3 3 4 4 5
2 2 2 2 3 2 2 2 2 2 2 1 1 0 -1 -1 -1 -1 -2 -2 -2 -2 -2 -1 -1 -1 -1 -0 0 1 1 1 1 1 1 2 2 2 2 2 3 3 3 4
1 2 2 2 2 2 2 1 1 0 -0 -0 0 -1 -1 -1 -2 -2 -2 -2 -2 -2 -2 -2 -2 -1 -1 -1 -0 -0 0 0 1 1 1 1 1 1 2 2 2 2 3 3
1 1 1 1 2 2 1 1 -0 0 1 1 0 -1 -1 -2 -3 -3 -3 -3 -3 -3 -2 -2 -2 -2 -2 -2 -1 -1 -1 -0 -0 0 0 0 1 1 1 1 1 2 2 2
1 0 0 1 0 0 0 -0 -1 -1 -0 -0 -1 -0 -2 -3 -3 -4 -4 -3 -3 -3 -3 -2 -2 -2 -2 -2 -2 -2 -1 -1 -1 -0 -0 -0 0 0 1 1 1 1 2 2
-1 -1 -1 -0 -0 -0 -0 -1 -1 -1 -1 -2 -2 -1 -2 -3 -4 -4 -4 -3 -3 -3 -3 -3 -3 -3 -3 -2 -2 -2 -2 -2 -1 -1 -1 -0 -0 -0 0 0 1 1 1 1
-1 -1 -1 -0 -0 -1 -1 -2 -2 -2 -3 -3 -3 -2 -3 -4 -4 -4 -4 -4 -4 -4 -3 -3 -3 -3 -3 -3 -3 -3 -3 -2 -2 -2 -1 -1 -1 -1 -0 -0 0 0 1 1
0 -2 -1 -0 -0 -2 -2 -2 -2 -3 -3 -3 -3 -3 -3 -4 -5 -4 -4 -4 -4 -4 -4 -4 -4 -4 -3 -3 -3 -3 -3 -3 -3 -2 -2 -2 -1 -1 -1 -1 -0 -0 0 0
-1 -2 -3 -3 -2 -2 -2 -2 -3 -3 -3 -3 -4 -4 -4 -5 -5 -5 -4 -5 -5 -5 -5 -4 -4 -4 -4 -4 -4 -4 -4 -4 -3 -3 -3 -2 -2 -2 -1 -1 -1 -1 -1 -1
-3 -3 -3 -3 -2 -2 -2 -3 -3 -3 -3 -4 -4 -4 -5 -5 -5 -5 -5 -5 -5 -5 -5 -5 -5 -5 -5 -4 -4 -4 -4 -4 -4 -4 -3 -3 -3 -2 -2 -2 -2 -2 -1 -1
-4 -4 -4 -3 -4 -3 -4 -4 -4 -4 -5 -5 -5 -5 -6 -6 -5 -5 -5 -5 -5 -6 -6 -5 -5 -5 -5 -5 -5 -4 -4 -4 -4 -4 -4 -4 -3 -3 -3 -2 -2 -2 -2 -2
-4 -4 -5 -4 -4 -4 -4 -4 -4 -5 -5 -6 -6 -6 -6 -6 -5 -5 -5 -5 -6 -6 -6 -6 -6 -5 -5 -5 -5 -5 -4 -4 -4 -4 -4 -4 -4 -3 -3 -3 -3 -3 -3 -3
-5 -4 -5 -5 -5 -5 -4 -4 -5 -6 -6 -6 -7 -6 -6 -6 -6 -5 -5 -6 -6 -6 -6 -6 -6 -6 -6 -5 -5 -5 -5 -5 -5 -5 -5 -5 -4 -4 -4 -4 -3 -3 -3 -3
-5 -6 -6 -6 -5 -4 -4 -5 -5 -5 -6 -6 -6 -6 -6 -7 -7 -6 -6 -6 -6 -7 -6 -6 -6 -6 -6 -6 -6 -5 -5 -5 -5 -5 -5 -5 -5 -5 -4 -4 -4 -4 -4 -3
-6 -7 -7 -6 -6 -6 -6 -5 -5 -5 -5 -6 -6 -6 -7 -7 -7 -6 -7 -7 -7 -7 -7 -7 -6 -6 -6 -6 -6 -6 -6 -6 -6 -6 -5 -5 -5 -5 -5 -5 -4 -4 -4 -4
-6 -7 -7 -7 -7 -6 -6 -6 -6 -6 -6 -6 -6 -6 -7 -7 -7 -7 -7 -7 -7 -7 -7 -7 -7 -7 -7 -7 -7 -6 -6 -6 -6 -6 -6 -6 -5 -5 -5 -5 -5 -5 -5 -5
-7 -7 -7 -7 -6 -6 -6 -5 -5 -6 -6 -6 -6 -7 -7 -7 -7 -8 -8 -8 -8 -8 -8 -8 -8 -8 -7 -7 -7 -7 -7 -7 -7 -6 -6 -6 -6 -6 -6 -6 -6 -5 -5 -5
-8 -8 -8 -8 -8 -6 -6 -6 -6 -6 -6 -7 -7 -7 -7 -8 -8 -8 -8 -8 -8 -8 -8 -8 -8 -8 -8 -8 -8 -8 -8 -7 -7 -7 -7 -7 -7 -6 -6 -6 -6 -6 -6 -6
-8 -9 -8 -8 -8 -7 -6 -6 -6 -7 -7 -7 -7 -8 -8 -8 -8 -9 -9 -9 -9 -9 -9 -9 -9 -9 -9 -8 -8 -8 -8 -8 -8 -8 -7 -7 -7 -7 -7 -7 -7 -7 -6 -7
-9 -9 -8 -7 -7 -7 -7 -6 -7 -7 -7 -8 -8 -8 -8 -9 -9 -9 -9 -9 -9 -9 -9 -9 -9 -9 -9 -9 -9 -9 -9 -9 -9 -8 -8 -8 -8 -8 -8 -8 -7 -7 -7 -7
Wind_Speed
5 6 2 2 2 1 1 2 4 4 2 2 1 2 5 6 7 7 7 7 7 7 8 8 8 8 8 8 7 6 5 5 4 3 2 2 3 3 3 3 3 3 2 1
6 4 4 2 1 0 1 3 4 4 2 0 0 2 2 4 5 4 5 6 7 8 10 10 10 9 8 8 8 7 6 5 4 2 2 2 2 2 2 3 4 3 3 2
3 3 3 2 3 2 1 3 4 5 4 1 1 3 1 2 4 5 6 5 6 7 8 9 9 9 8 8 8 7 7 6 5 5 3 3 3 2 2 3 3 4 3 2
2 4 4 3 3 2 3 3 4 3 1 3 1 4 3 2 4 6 7 7 7 8 8 8 9 9 8 8 7 7 7 7 6 4 3 2 2 3 3 3 3 4 3 2
2 3 4 3 3 1 3 3 3 2 2 2 1 3 4 3 4 6 7 7 8 8 8 9 9 9 8 7 7 7 7 8 7 5 4 2 3 3 3 3 3 4 3 3
2 2 2 2 2 1 2 2 1 2 2 2 3 4 4 1 3 5 6 8 8 8 8 9 9 9 8 8 8 8 8 8 7 6 5 4 4 3 4 4 3 3 3 3
6 4 5 4 4 5 5 4 4 4 2 4 1 2 4 2 1 2 5 7 8 7 7 7 9 10 10 10 9 8 8 8 8 7 6 5 5 4 3 4 3 4 4 4
4 5 5 4 2 2 2 2 2 3 4 4 2 4 3 1 2 2 4 5 7 7 6 7 7 8 8 10 9 8 9 9 9 8 7 6 5 4 3 4 4 4 4 4
1 4 3 4 3 1 1 1 2 2 2 3 4 4 4 2 5 6 6 7 7 7 7 7 7 7 8 9 9 8 8 9 9 9 8 7 6 5 5 5 4 4 3 4
1 4 5 5 3 4 2 2 3 2 1 4 5 4 3 3 5 7 7 8 8 8 8 7 7 7 7 8 8 8 8 8 9 9 8 7 7 6 5 5 5 4 4 4
1 1 5 4 2 2 3 2 1 1 2 2 5 5 1 1 3 5 6 7 8 8 7 7 7 7 7 8 8 8 9 9 9 9 8 8 7 6 5 5 5 4 4 4
1 2 3 4 2 1 2 1 2 2 3 2 3 6 0 1 2 4 6 7 8 7 6 6 6 7 7 8 9 9 9 9 9 8 8 8 8 6 6 5 5 4 4 4
2 2 3 5 2 3 2 1 1 2 1 3 4 7 1 4 5 6 7 8 8 8 7 6 6 6 7 8 8 9 9 9 9 8 8 8 8 7 7 6 6 5 4 3
3 2 4 6 6 2 3 3 2 2 3 5 7 9 7 7 8 8 8 8 8 7 7 7 7 7 7 8 8 9 9 9 9 9 8 8 8 7 7 7 6 5 4 3
2 2 4 7 6 4 5 6 5 6 6 7 8 8 9 7 7 8 7 8 8 8 8 8 9 9 8 8 8 8 9 9 9 8 8 8 8 7 7 6 6 5 4 4
2 1 2 4 3 4 6 6 6 6 5 7 8 10 6 6 5 6 7 8 8 9 9 9 9 10 10 9 9 9 9 9 8 8 8 8 8 8 7 6 6 5 4 4
1 2 1 4 4 4 6 6 5 3 3 4 6 6 5 6 7 7 7 7 8 9 10 10 10 9 10 9 8 9 9 9 8 7 8 8 8 8 7 6 5 5 5 4
3 3 1 2 3 5 5 1 2 3 4 4 5 5 5 7 8 7 5 5 7 9 10 10 9 9 9 8 8 8 8 8 7 7 7 8 8 8 8 7 5 5 4 4
4 4 2 1 3 7 5 2 2 2 5 4 5 6 6 6 6 4 4 4 6 8 9 9 9 8 8 8 8 8 8 7 7 7 7 8 7 8 8 7 6 5 4 4
3 3 3 2 3 6 4 1 0 2 5 2 2 5 6 5 5 5 6 7 8 8 8 8 8 8 8 8 7 7 8 7 7 8 8 7 7 7 7 7 6 5 4 4
1 1 3 4 5 7 5 2 2 2 5 3 3 4 4 3 6 7 9 8 8 8 9 8 8 7 8 8 6 7 7 8 8 8 7 7 7 7 6 6 5 5 5 4
5 4 4 4 4 7 2 3 4 6 2 2 3 4 5 6 8 8 8 9 9 9 9 8 8 8 8 7 6 7 8 8 7 7 7 7 7 6 6 5 5 4 4 4
6 6 5 7 7 3 3 4 3 2 3 3 3 5 5 6 7 8 8 8 8 9 9 8 8 9 8 7 6 8 9 8 7 7 7 6 7 6 6 5 5 4 3 3
4 2 3 5 7 5 4 4 3 2 3 4 4 5 4 6 7 8 8 8 8 8 8 8 8 9 9 8 8 7 8 7 7 7 6 6 5 6 5 5 4 4 3 3
4 4 3 6 6 5 4 4 4 3 3 4 4 4 4 5 6 6 7 8 8 8 8 7 8 9 10 9 9 9 7 7 6 6 6 5 5 5 5 5 4 4 3 3
4 5 5 6 5 4 5 3 2 3 4 4 4 5 4 4 6 6 7 7 7 7 7 8 8 9 9 9 9 8 7 6 6 6 5 4 4 4 4 4 5 7 6 7
Wind_Direction
28 58 33 295 242 212 172 221 273 278 319 38 135 295 324 1 24 18 10 10 7 357 351 359 1 3 6 7 8 4 5 1 4 2 354 346 339 340 349 357 347 348 337 310
43 20 309 320 31 92 213 269 286 302 345 88 262 307 335 25 34 24 13 5 359 355 356 359 0 3 4 1 1 1 356 353 348 335 332 323 319 317 336 358 352 348 344 326
95 317 330 51 35 13 266 224 256 273 324 358 329 291 322 12 33 27 17 7 7 2 352 350 354 354 356 357 356 353 347 345 345 345 0 6 4 359 0 343 332 335 326 322
50 339 9 40 25 13 285 277 265 268 306 285 171 282 275 318 356 5 359 358 360 358 353 349 351 350 348 345 347 350 349 349 345 352 354 2 340 324 314 314 309 327 326 323
357 351 19 21 335 320 270 304 270 253 206 283 257 224 287 343 336 343 347 350 352 352 351 349 349 343 339 342 348 347 350 352 350 345 335 319 310 312 321 328 319 321 328 325
358 357 39 323 324 331 310 344 21 62 96 270 238 197 283 306 303 327 336 341 341 344 347 347 349 352 350 351 354 351 351 348 346 340 334 323 310 315 325 322 311 313 308 313
352 0 4 7 8 11 36 49 8 349 343 257 196 200 255 267 335 326 327 329 333 337 345 349 351 351 350 350 351 350 348 342 341 338 331 319 307 293 285 291 289 298 303 295
3 325 347 5 15 325 353 107 153 243 262 291 309 237 245 240 14 356 336 329 337 341 345 343 344 346 345 345 345 346 344 340 338 336 326 320 312 301 294 293 289 281 283 281
15 291 330 350 342 58 52 101 170 162 272 279 271 286 289 20 6 357 349 345 340 337 338 337 341 344 342 342 340 339 338 336 335 332 325 320 318 310 302 299 295 283 288 300
153 286 311 322 10 33 70 126 87 128 267 278 286 272 273 309 324 333 338 336 330 332 334 335 341 341 340 338 339 339 337 333 332 333 329 321 316 310 304 301 297 294 295 300
88 231 314 355 29 337 30 52 87 172 193 221 283 277 232 233 301 306 315 323 323 323 324 328 334 334 336 340 343 344 340 337 336 334 329 325 319 316 311 305 301 301 298 291
79 119 286 279 277 257 151 151 145 186 261 224 255 271 1 36 315 312 316 321 321 318 318 325 329 334 339 341 342 341 338 335 332 330 327 328 325 321 316 310 308 304 297 292
123 99 345 338 345 11 34 39 119 152 174 214 236 268 329 360 344 334 323 319 322 323 330 335 332 333 333 334 335 335 332 330 330 329 330 332 333 329 321 314 311 306 300 301
106 149 194 233 258 257 277 274 228 173 219 248 243 269 301 322 323 321 318 316 318 322 330 333 332 327 327 327 328 328 328 329 330 331 331 331 330 327 322 321 318 316 312 306
90 222 242 258 267 254 258 269 246 220 222 234 261 265 282 300 297 302 311 318 326 329 330 329 329 326 324 325 327 328 328 329 328 329 331 328 327 326 325 327 324 322 321 315
72 222 285 284 279 268 272 273 258 249 244 248 268 276 282 295 304 310 315 319 323 321 322 323 325 325 321 321 323 325 325 325 325 325 328 330 331 331 330 328 327 328 328 328
149 148 268 281 315 328 276 252 224 232 225 217 244 265 311 314 311 306 305 312 314 315 317 318 318 315 312 311 314 316 317 320 323 325 327 331 333 332 329 328 332 332 331 332
163 154 183 286 357 261 252 239 204 232 251 241 260 284 295 289 295 285 283 299 310 317 317 315 314 312 309 306 313 314 318 321 323 325 328 331 334 329 329 334 332 329 335 336
167 157 164 196 264 276 288 249 176 223 273 243 258 285 299 312 313 295 302 316 307 306 305 305 304 306 308 307 311 317 320 322 325 326 327 329 329 327 329 332 331 329 337 342
74 113 147 167 232 256 261 271 157 101 281 280 265 284 303 336 321 299 323 322 313 312 311 311 313 315 315 312 316 317 317 319 320 320 321 323 324 324 324 325 327 334 339 342
106 100 172 202 236 264 260 257 122 185 269 301 272 280 288 264 258 288 311 316 316 315 316 317 317 316 314 316 318 315 314 312 314 318 321 323 325 324 324 328 335 343 347 354
185 183 197 180 219 258 228 140 187 231 272 278 277 280 281 279 289 303 312 318 324 325 325 325 323 320 321 323 322 315 312 316 322 321 322 323 327 329 332 336 339 347 354 0
204 198 196 199 221 250 201 206 231 228 253 270 279 291 291 295 301 309 314 317 321 324 324 326 324 322 325 327 325 317 318 324 325 324 325 327 331 333 335 335 338 350 358 357
248 198 197 252 266 264 252 252 267 258 263 285 290 294 295 294 299 307 313 318 322 323 325 327 328 327 326 328 327 319 321 325 323 323 326 330 334 335 340 337 338 343 347 345
229 181 212 256 278 300 276 246 253 276 290 300 304 299 294 294 301 304 308 313 316 320 324 328 328 325 323 326 326 326 328 329 326 324 327 333 333 331 333 336 338 336 334 334
199 188 197 237 238 230 265 270 254 268 285 289 299 308 308 299 298 306 306 308 312 316 322 325 326 324 324 328 327 328 331 331 327 326 333 334 332 330 333 334 339 347 347 351
Height
1511 1516 1521 1520 1520 1519 1520 1522 1523 1521 1519 1522 1524 1524 1522 1521 1519 1518 1517 1516 1515 1514 1513 1512 1510 1509 1508 1507 1506 1506 1506 1505 1505 1505 1505 1505 1505 1506 1507 1508 1508 1509 1509 1510
1518 1522 1521 1520 1519 1520 1520 1523 1523 1522 1520 1522 1524 1525 1523 1521 1521 1520 1519 1517 1515 1513 1511 1510 1509 1508 1506 1506 1505 1504 1504 1504 1504 1504 1504 1503 1503 1503 1504 1504 1505 1506 1506 1507
1522 1524 1520 1520 1521 1521 1522 1523 1523 1523 1522 1522 1524 1523 1523 1522 1521 1520 1519 1518 1516 1514 1512 1510 1508 1507 1506 1504 1503 1503 1503 1502 1502 1502 1501 1501 1500 1500 1500 1500 1501 1502 1502 1503
1524 1523 1522 1522 1523 1523 1523 1521 1521 1522 1525 1527 1525 1527 1523 1523 1522 1520 1519 1517 1516 1515 1513 1511 1508 1507 1505 1504 1503 1502 1501 1500 1500 1499 1498 1497 1497 1496 1496 1497 1497 1498 1499 1499
1526 1525 1524 1524 1524 1523 1523 1521 1522 1522 1525 1529 1527 1530 1525 1523 1522 1522 1520 1519 1517 1515 1513 1511 1509 1507 1505 1504 1502 1501 1499 1498 1497 1497 1496 1495 1495 1494 1494 1494 1494 1494 1494 1495
1526 1525 1525 1525 1524 1523 1522 1522 1522 1525 1527 1529 1527 1531 1526 1527 1524 1523 1522 1520 1517 1515 1513 1511 1509 1507 1504 1502 1501 1499 1497 1496 1495 1494 1493 1492 1492 1491 1490 1490 1490 1490 1490 1491
1530 1528 1527 1526 1525 1524 1525 1528 1531 1530 1532 1527 1526 1528 1529 1526 1524 1524 1523 1520 1517 1515 1513 1510 1508 1505 1503 1501 1499 1497 1495 1494 1493 1491 1490 1489 1489 1488 1487 1487 1486 1486 1485 1486
1537 1535 1531 1529 1529 1530 1529 1530 1536 1537 1534 1530 1527 1528 1528 1525 1524 1523 1522 1520 1517 1515 1512 1510 1508 1505 1502 1500 1498 1496 1494 1492 1491 1489 1487 1486 1486 1485 1484 1484 1483 1482 1482 1482
1540 1537 1531 1530 1529 1529 1530 1534 1534 1540 1540 1539 1530 1531 1527 1524 1523 1522 1521 1519 1516 1514 1512 1509 1507 1505 1502 1499 1497 1495 1493 1491 1489 1487 1485 1483 1483 1481 1480 1480 1479 1478 1478 1478
1540 1541 1535 1533 1530 1531 1532 1534 1539 1539 1539 1536 1529 1530 1528 1526 1525 1523 1521 1519 1516 1513 1511 1508 1506 1504 1502 1499 1497 1495 1492 1489 1487 1484 1483 1481 1479 1478 1477 1476 1475 1474 1474 1473
1540 1543 1539 1536 1536 1536 1536 1538 1539 1540 1539 1540 1537 1530 1527 1526 1525 1524 1521 1519 1516 1513 1510 1508 1506 1503 1501 1498 1495 1493 1490 1487 1484 1482 1480 1478 1476 1475 1473 1472 1471 1470 1469 1469
1541 1545 1545 1539 1536 1536 1536 1538 1541 1543 1542 1543 1541 1534 1525 1525 1523 1522 1521 1518 1515 1512 1510 1507 1505 1502 1500 1497 1494 1491 1488 1485 1482 1480 1478 1475 1473 1472 1470 1468 1467 1467 1466 1466
1541 1545 1547 1540 1541 1540 1539 1539 1540 1542 1544 1546 1544 1533 1524 1524 1522 1521 1520 1517 1514 1511 1508 1506 1504 1501 1498 1496 1493 1490 1487 1484 1481 1478 1475 1473 1471 1469 1467 1465 1464 1463 1462 1461
1539 1544 1546 1544 1538 1540 1540 1539 1539 1541 1543 1542 1537 1530 1525 1524 1523 1521 1518 1516 1513 1510 1508 1505 1502 1500 1497 1494 1491 1488 1485 1482 1479 1476 1473 1470 1468 1466 1464 1462 1461 1459 1459 1458
1539 1544 1544 1541 1538 1538 1537 1536 1537 1538 1537 1538 1532 1530 1525 1524 1523 1520 1518 1515 1512 1509 1507 1504 1501 1498 1495 1492 1489 1487 1483 1480 1477 1474 1471 1468 1466 1464 1462 1460 1458 1457 1456 1455
1540 1543 1543 1540 1537 1537 1535 1534 1534 1533 1533 1533 1530 1527 1523 1522 1520 1518 1516 1513 1511 1508 1506 1503 1500 1497 1493 1490 1487 1484 1481 1478 1475 1472 1469 1466 1464 1461 1459 1457 1455 1454 1452 1452
1542 1544 1545 1542 1540 1537 1536 1533 1531 1531 1530 1530 1529 1527 1522 1521 1518 1517 1515 1512 1510 1507 1505 1501 1498 1495 1492 1489 1486 1482 1479 1476 1473 1470 1467 1464 1461 1459 1457 1455 1453 1451 1450 1449
1541 1543 1546 1546 1544 1543 1533 1529 1529 1529 1528 1528 1526 1523 1522 1520 1517 1515 1513 1511 1508 1505 1502 1499 1496 1492 1490 1487 1484 1481 1478 1474 1471 1469 1465 1463 1460 1458 1455 1453 1451 1450 1448 1447
1538 1541 1546 1547 1547 1538 1531 1528 1529 1530 1527 1524 1524 1522 1520 1518 1515 1512 1511 1510 1507 1504 1501 1498 1494 1491 1487 1484 1481 1478 1475 1472 1469 1467 1464 1461 1459 1456 1454 1452 1450 1449 1447 1445
1539 1541 1546 1548 1544 1537 1529 1527 1526 1529 1528 1522 1521 1520 1519 1518 1517 1513 1510 1508 1505 1502 1499 1495 1491 1488 1485 1482 1479 1476 1473 1470 1467 1465 1462 1460 1458 1455 1453 1451 1449 1448 1446 1445
1542 1545 1547 1547 1545 1536 1528 1526 1527 1532 1526 1521 1520 1519 1518 1517 1516 1512 1508 1505 1502 1499 1496 1492 1489 1486 1483 1480 1477 1474 1471 1468 1466 1463 1461 1459 1456 1454 1452 1450 1448 1447 1446 1444
1540 1543 1545 1545 1545 1536 1524 1524 1526 1524 1520 1519 1518 1517 1516 1514 1512 1509 1506 1503 1499 1496 1493 1490 1486 1483 1480 1477 1474 1471 1469 1467 1464 1461 1459 1457 1455 1453 1451 1449 1448 1446 1445 1443
1536 1534 1534 1534 1530 1523 1521 1520 1520 1519 1518 1517 1516 1515 1513 1511 1509 1506 1503 1500 1497 1493 1490 1487 1483 1480 1478 1475 1472 1469 1467 1464 1462 1459 1457 1455 1453 1452 1450 1448 1446 1445 1444 1443
1530 1529 1529 1528 1522 1519 1519 1518 1518 1517 1516 1515 1514 1513 1511 1508 1506 1503 1500 1497 1494 1491 1488 1484 1481 1477 1475 1472 1470 1467 1465 1462 1460 1457 1455 1453 1452 1450 1449 1447 1446 1445 1444 1443
1525 1526 1526 1524 1519 1517 1515 1515 1515 1514 1513 1513 1511 1510 1508 1506 1503 1501 1498 1495 1492 1489 1485 1482 1479 1475 1472 1470 1467 1465 1462 1460 1457 1455 1453 1452 1450 1449 1448 1446 1445 1444 1443 1443
1521 1521 1522 1519 1515 1516 1514 1513 1513 1512 1511 1510 1508 1506 1505 1503 1501 1498 1495 1492 1489 1486 1483 1480 1477 1473 1471 1468 1465 1462 1460 1458 1456 1454 1452 1450 1449 1448 1447 1445 1444 1443 1443 1442